DW4188 Victoria Point QNL AU current weather conditions

sailwx.info

Wind from 236 at 2 knots gusting 6

Air temperature 19.4° C
Dewpoint 11.2° C

Last reported at 2018-Apr-24 17:56 UTC.
Time now 2018-Apr-24 18:17 UTC

Location: S 27°35' E 153°18'.
View on Google Maps.

See reports from other nearby stations

  
Tides and Currents Weather Stations Pressure Air Temp Water Temp Dewpoint Dewpoint Depression Visibility Wind Speed Wind Dir Waves Ship Positions
date/time (UTC)wind fromknots sea level pressurealtimeterstation pressurevisibilityair tempwater tempwave heightnotes
2018-Apr-24 17:56 236 2 gusting 6 19.4
2018-Apr-24 17:47 242 5 gusting 7 19.4
2018-Apr-24 17:38 269 4 gusting 6 19.4
2018-Apr-24 17:29 272 4 gusting 6 19.4
2018-Apr-24 17:20 274 5 gusting 6 18.9
2018-Apr-24 17:11 253 3 gusting 5 19.4
2018-Apr-24 17:02 258 2 gusting 5 20.0
2018-Apr-24 16:53 276 2 gusting 6 19.4
2018-Apr-24 16:44 274 1 gusting 4 20.0
2018-Apr-24 16:35 258 1 gusting 3 20.0
2018-Apr-24 16:26 253 1 gusting 4 20.0
2018-Apr-24 16:17 274 3 gusting 5 20.0
2018-Apr-24 16:08 263 3 gusting 4 20.0
2018-Apr-24 15:59 239 1 gusting 6 20.0
2018-Apr-24 15:50 241 3 gusting 4 20.0
2018-Apr-24 15:41 232 2 gusting 5 20.6
2018-Apr-24 15:32 240 1 gusting 5 20.6
2018-Apr-24 15:23 241 1 gusting 3 20.6
2018-Apr-24 15:14 224 0 gusting 3 20.6
2018-Apr-24 15:05 223 0 gusting 2 20.6
2018-Apr-24 14:56 229 1 gusting 3 20.6
2018-Apr-24 14:47 233 3 gusting 3 20.6
2018-Apr-24 14:38 243 0 gusting 2 20.6
2018-Apr-24 14:29 249 0 gusting 2 21.1
2018-Apr-24 14:20 245 0 gusting 1 21.1
2018-Apr-24 14:11 252 21.1
2018-Apr-24 14:02 256 0 gusting 1 21.1
2018-Apr-24 13:53 21.1
2018-Apr-24 13:44 21.1
2018-Apr-24 13:35 21.1
2018-Apr-24 13:26 21.1
2018-Apr-24 13:17 21.7
2018-Apr-24 13:08 21.7
2018-Apr-24 12:59 314 21.7
2018-Apr-24 12:50 275 21.7
2018-Apr-24 12:41 284 21.7
2018-Apr-24 12:32 270 21.7
2018-Apr-24 12:23 263 0 gusting 2 21.1
2018-Apr-24 12:14 312 0 gusting 2 21.7
2018-Apr-24 12:05 295 21.7
2018-Apr-24 11:56 263 1 gusting 2 21.7
2018-Apr-24 11:47 255 21.7
2018-Apr-24 11:38 259 1 gusting 2 21.7
2018-Apr-24 11:29 238 0 gusting 2 21.7
2018-Apr-24 11:20 239 1 gusting 3 21.7
2018-Apr-24 11:11 242 0 gusting 3 21.7
2018-Apr-24 11:02 246 1 gusting 3 21.7
2018-Apr-24 10:53 236 1 gusting 5 21.7
2018-Apr-24 10:44 231 2 gusting 3 21.7
2018-Apr-24 10:35 192 1 gusting 4 21.7
2018-Apr-24 10:26 216 21.7
2018-Apr-24 10:17 226 0 gusting 2 22.2
2018-Apr-24 10:08 224 1 gusting 2 21.7
2018-Apr-24 09:59 210 22.2
2018-Apr-24 09:50 250 1 gusting 3 22.2
2018-Apr-24 09:41 248 22.8
2018-Apr-24 09:32 22.8
2018-Apr-24 09:23 22.8
2018-Apr-24 09:14 248 22.8
2018-Apr-24 09:05 223 22.8
2018-Apr-24 08:56 225 23.3
2018-Apr-24 08:47 245 23.3
2018-Apr-24 08:38 270 22.8
2018-Apr-24 08:29 245 1 gusting 2 22.8
2018-Apr-24 08:20 199 22.8
2018-Apr-24 08:11 222 22.8
2018-Apr-24 08:02 226 1 gusting 2 22.8
2018-Apr-24 07:53 237 1 gusting 3 22.8
2018-Apr-24 07:44 240 22.8
2018-Apr-24 07:35 231 2 gusting 2 22.8
2018-Apr-24 07:26 196 0 gusting 3 22.8
2018-Apr-24 07:17 199 2 gusting 3 23.3
2018-Apr-24 07:08 216 2 gusting 3 22.8
2018-Apr-24 06:59 170 3 gusting 4 23.3
2018-Apr-24 06:50 169 1 gusting 3 23.9
2018-Apr-24 06:41 190 23.9
2018-Apr-24 06:32 170 1 gusting 2 23.9
2018-Apr-24 06:23 156 23.9
2018-Apr-24 06:14 094 0 gusting 2 24.4
2018-Apr-24 06:05 107 1 gusting 1 24.4
2018-Apr-24 05:56 050 1 gusting 4 24.4
2018-Apr-24 05:47 022 1 gusting 4 24.4
2018-Apr-24 05:38 25.0
2018-Apr-24 05:29 152 0 gusting 4 25.6
2018-Apr-24 05:20 176 3 gusting 5 26.1
2018-Apr-24 05:11 183 6 gusting 3 26.1
2018-Apr-24 05:02 187 3 gusting 4 26.1
2018-Apr-24 04:53 164 1 gusting 5 26.1
2018-Apr-24 04:44 187 3 gusting 6 26.1
2018-Apr-24 04:35 204 0 gusting 5 26.1
2018-Apr-24 04:26 229 4 gusting 6 26.1
2018-Apr-24 04:17 255 4 gusting 8 25.6
2018-Apr-24 04:08 242 5 gusting 6 25.6
2018-Apr-24 03:59 215 1 gusting 5 25.6
2018-Apr-24 03:50 226 1 gusting 6 25.6
2018-Apr-24 03:41 275 3 gusting 6 25.6
2018-Apr-24 03:32 288 5 gusting 6 25.6
2018-Apr-24 03:23 247 0 gusting 6 25.0
2018-Apr-24 03:14 223 3 gusting 6 24.4
2018-Apr-24 03:05 176 2 gusting 4 24.4
2018-Apr-24 02:56 215 2 gusting 5 25.0
2018-Apr-24 02:47 245 2 gusting 4 25.6
2018-Apr-24 02:38 018 1 gusting 2 25.6
2018-Apr-24 02:29 038 25.0
2018-Apr-24 02:20 062 1 gusting 3 25.0
2018-Apr-24 02:11 084 0 gusting 3 25.0
2018-Apr-24 02:02 266 25.0
2018-Apr-24 01:53 193 2 gusting 5 25.0
2018-Apr-24 01:44 276 1 gusting 3 24.4
2018-Apr-24 01:35 289 3 gusting 5 24.4
2018-Apr-24 01:26 283 24.4
2018-Apr-24 01:17 345 1 gusting 4 24.4
2018-Apr-24 01:08 287 2 gusting 5 23.9
2018-Apr-24 00:59 185 1 gusting 3 23.9
2018-Apr-24 00:50 256 1 gusting 3 23.3
2018-Apr-24 00:41 260 2 gusting 5 23.3
2018-Apr-24 00:32 224 1 gusting 3 23.3
2018-Apr-24 00:23 181 0 gusting 3 22.8
2018-Apr-24 00:14 261 22.8
2018-Apr-24 00:05 269 2 gusting 4 22.8
2018-Apr-23 23:56 223 1 gusting 4 22.2
2018-Apr-23 23:47 200 1 gusting 7 22.2
2018-Apr-23 23:38 177 4 gusting 7 22.2
2018-Apr-23 23:29 191 3 gusting 4 21.7
2018-Apr-23 23:20 173 1 gusting 3 21.7
2018-Apr-23 23:11 237 1 gusting 5 21.1
2018-Apr-23 23:02 235 4 gusting 5 21.1
2018-Apr-23 22:53 225 3 gusting 6 20.6
2018-Apr-23 22:44 228 3 gusting 6 20.6
2018-Apr-23 22:35 241 3 gusting 5 20.6
2018-Apr-23 22:26 221 3 gusting 6 20.0
2018-Apr-23 22:17 211 3 gusting 5 20.0
2018-Apr-23 22:08 226 4 gusting 6 20.0
2018-Apr-23 21:59 241 2 gusting 5 20.0
2018-Apr-23 21:50 230 2 gusting 4 19.4
2018-Apr-23 21:41 243 3 gusting 5 19.4
2018-Apr-23 21:32 254 0 gusting 2 19.4
2018-Apr-23 21:23 257 19.4
2018-Apr-23 21:14 243 1 gusting 2 19.4
2018-Apr-23 21:05 235 1 gusting 3 18.9
2018-Apr-23 20:56 224 0 gusting 3 18.3
2018-Apr-23 20:47 236 0 gusting 2 18.9
2018-Apr-23 20:38 247 0 gusting 1 18.3
2018-Apr-23 20:29 241 1 gusting 3 18.3
2018-Apr-23 20:20 233 1 gusting 3 18.3
2018-Apr-23 20:11 218 18.3
2018-Apr-23 20:02 255 18.9
2018-Apr-23 19:53 250 1 gusting 2 18.3
2018-Apr-23 19:44 226 0 gusting 2 17.8
2018-Apr-23 19:35 217 1 gusting 3 17.8
2018-Apr-23 19:26 227 1 gusting 2 18.3
2018-Apr-23 19:17 259 18.9
2018-Apr-23 19:08 242 0 gusting 2 18.9
2018-Apr-23 18:59 209 18.3
2018-Apr-23 18:50 248 18.3
2018-Apr-23 18:41 308 18.9
2018-Apr-23 18:32 268 0 gusting 1 18.9
2018-Apr-23 18:23 247 18.9
2018-Apr-23 18:14 237 18.9
2018-Apr-23 18:05 244 1 gusting 2 18.9
2018-Apr-23 17:56 181 18.3
2018-Apr-23 17:47 18.9
2018-Apr-23 17:38 230 19.4
2018-Apr-23 17:29 203 19.4
2018-Apr-23 17:20 18.9
2018-Apr-23 17:11 19.4
2018-Apr-23 17:02 221 18.9
2018-Apr-23 16:53 197 18.9
2018-Apr-23 16:44 221 19.4
2018-Apr-23 16:35 20.0
2018-Apr-23 16:26 213 20.0
2018-Apr-23 16:17 240 19.4
2018-Apr-23 16:08 249 1 gusting 2 20.0
2018-Apr-23 15:59 248 1 gusting 3 20.0
2018-Apr-23 15:50 242 0 gusting 2 20.0
2018-Apr-23 15:41 250 1 gusting 2 20.0
2018-Apr-23 15:32 234 0 gusting 2 20.0
2018-Apr-23 15:23 235 0 gusting 2 20.0
2018-Apr-23 15:14 236 1 gusting 2 20.0
2018-Apr-23 15:05 248 20.0
2018-Apr-23 14:56 20.0
2018-Apr-23 14:47 20.0
2018-Apr-23 14:38 20.6
2018-Apr-23 14:29 274 20.6
2018-Apr-23 14:20 237 0 gusting 2 20.6
2018-Apr-23 14:11 244 0 gusting 2 20.0
2018-Apr-23 14:02 236 1 gusting 3 20.6
2018-Apr-23 13:53 238 1 gusting 2 20.6
2018-Apr-23 13:44 253 1 gusting 3 21.1
2018-Apr-23 13:35 230 0 gusting 3 21.1
2018-Apr-23 13:26 247 0 gusting 2 21.1
2018-Apr-23 13:17 236 1 gusting 3 20.6
2018-Apr-23 13:08 245 21.1
2018-Apr-23 12:59 220 21.1
2018-Apr-23 12:50 220 21.1
2018-Apr-23 12:41 209 21.1
2018-Apr-23 12:32 257 21.1
2018-Apr-23 12:23 238 21.7
2018-Apr-23 12:14 21.7
2018-Apr-23 12:05 21.7
2018-Apr-23 11:56 21.7
2018-Apr-23 11:47 21.7
2018-Apr-23 11:38 21.7
2018-Apr-23 11:29 21.7
2018-Apr-23 11:20 170 21.1
2018-Apr-23 11:11 178 21.1
2018-Apr-23 11:02 185 21.1
2018-Apr-23 10:53 200 1 gusting 4 21.1
2018-Apr-23 10:44 058 0 gusting 99 20.6
2018-Apr-23 10:35 170 0 gusting 5 20.6
2018-Apr-23 10:26 165 3 gusting 5 21.1
2018-Apr-23 10:17 170 1 gusting 5 21.1
2018-Apr-23 10:08 160 1 gusting 5 21.1
2018-Apr-23 09:59 164 2 gusting 6 21.1
2018-Apr-23 09:50 160 4 gusting 6 21.1
2018-Apr-23 09:41 158 3 gusting 5 21.1
2018-Apr-23 09:32 156 3 gusting 5 21.1
2018-Apr-23 09:23 165 3 gusting 5 21.1
2018-Apr-23 09:14 160 2 gusting 6 21.7
2018-Apr-23 09:05 154 4 gusting 8 21.7
2018-Apr-23 08:56 158 3 gusting 8 21.7
2018-Apr-23 08:47 152 4 gusting 7 21.7
2018-Apr-23 08:38 152 2 gusting 6 21.7
2018-Apr-23 08:29 155 2 gusting 8 21.7
2018-Apr-23 08:20 144 4 gusting 7 21.7
2018-Apr-23 08:11 146 4 gusting 7 22.2
2018-Apr-23 08:02 152 3 gusting 9 22.2
2018-Apr-23 07:53 152 3 gusting 6 22.2
2018-Apr-23 07:44 151 3 gusting 7 22.2
2018-Apr-23 07:35 147 2 gusting 8 22.2
2018-Apr-23 07:26 149 4 gusting 7 22.2
2018-Apr-23 07:17 146 2 gusting 9 22.8
2018-Apr-23 07:08 156 6 gusting 9 22.8
2018-Apr-23 06:59 156 4 gusting 7 22.8
2018-Apr-23 06:50 155 5 gusting 7 23.3
2018-Apr-23 06:41 149 4 gusting 7 23.3
2018-Apr-23 06:32 145 1 gusting 12 23.3
2018-Apr-23 06:23 147 6 gusting 12 23.3
2018-Apr-23 06:14 153 3 gusting 7 22.8
2018-Apr-23 06:05 155 5 gusting 9 22.8
2018-Apr-23 05:56 141 2 gusting 6 22.8
2018-Apr-23 05:47 142 3 gusting 7 23.3
2018-Apr-23 05:38 145 3 gusting 7 23.3
2018-Apr-23 05:29 152 4 gusting 11 23.3
2018-Apr-23 05:20 156 6 gusting 7 23.9
2018-Apr-23 05:11 140 3 gusting 8 24.4
2018-Apr-23 05:02 158 5 gusting 8 24.4
2018-Apr-23 04:53 156 3 gusting 9 24.4
2018-Apr-23 04:44 138 3 gusting 9 24.4
2018-Apr-23 04:35 145 2 gusting 10 24.4
2018-Apr-23 04:26 140 5 gusting 10 25.0
2018-Apr-23 04:17 138 5 gusting 8 25.0
2018-Apr-23 04:08 146 8 gusting 10 25.0
2018-Apr-23 03:59 150 6 gusting 11 25.6
2018-Apr-23 03:50 145 4 gusting 6 25.6
2018-Apr-23 03:41 149 2 gusting 7 26.1
2018-Apr-23 03:32 134 5 gusting 7 26.1
2018-Apr-23 03:23 140 4 gusting 7 26.1
2018-Apr-23 03:14 146 2 gusting 6 26.1
2018-Apr-23 03:05 147 2 gusting 6 26.1
2018-Apr-23 02:56 156 3 gusting 10 26.1
2018-Apr-23 02:47 150 3 gusting 8 26.1
2018-Apr-23 02:38 147 5 gusting 7 26.1
2018-Apr-23 02:29 151 3 gusting 11 25.6
2018-Apr-23 02:20 146 7 gusting 11 26.1
2018-Apr-23 02:11 148 4 gusting 7 26.1
2018-Apr-23 02:02 143 2 gusting 8 25.6
2018-Apr-23 01:53 154 3 gusting 9 25.6
2018-Apr-23 01:44 142 3 gusting 6 25.0
2018-Apr-23 01:35 152 1 gusting 6 25.0
2018-Apr-23 01:26 138 1 gusting 6 25.6
2018-Apr-23 01:17 145 1 gusting 9 25.6
2018-Apr-23 01:08 153 3 gusting 12 25.0
2018-Apr-23 00:59 157 3 gusting 6 25.0
2018-Apr-23 00:50 157 2 gusting 7 24.4
2018-Apr-23 00:41 179 2 gusting 5 24.4
2018-Apr-23 00:32 167 3 gusting 6 24.4
2018-Apr-23 00:23 193 4 gusting 6 23.9
2018-Apr-23 00:14 196 2 gusting 6 23.3
2018-Apr-23 00:05 167 3 gusting 6 23.3
2018-Apr-22 23:56 188 3 gusting 5 23.3
2018-Apr-22 23:47 207 2 gusting 5 22.8
2018-Apr-22 23:38 210 2 gusting 5 22.2
2018-Apr-22 23:29 209 3 gusting 5 22.2
2018-Apr-22 23:20 229 3 gusting 6 21.7
2018-Apr-22 23:11 212 2 gusting 6 21.7
2018-Apr-22 23:02 218 2 gusting 5 21.7
2018-Apr-22 22:53 223 3 gusting 4 21.1
2018-Apr-22 22:44 213 0 gusting 5 21.1
2018-Apr-22 22:35 231 5 gusting 6 20.6
2018-Apr-22 22:26 188 1 gusting 3 20.6
2018-Apr-22 22:17 189 0 gusting 5 20.0
2018-Apr-22 22:08 183 2 gusting 5 20.0
2018-Apr-22 21:59 194 2 gusting 5 19.4
2018-Apr-22 21:50 177 2 gusting 4 19.4
2018-Apr-22 21:41 187 3 gusting 5 19.4
2018-Apr-22 21:32 207 2 gusting 5 18.9
2018-Apr-22 21:23 195 2 gusting 4 18.9
2018-Apr-22 21:14 194 1 gusting 3 18.3
2018-Apr-22 21:05 194 1 gusting 3 18.3
2018-Apr-22 20:56 200 1 gusting 5 18.3
2018-Apr-22 20:47 205 3 gusting 5 17.8
2018-Apr-22 20:38 219 1 gusting 4 18.3
2018-Apr-22 20:29 222 1 gusting 5 18.3
2018-Apr-22 20:20 225 3 gusting 5 18.3
2018-Apr-22 20:11 220 3 gusting 5 18.9
2018-Apr-22 20:02 225 2 gusting 3 18.9
2018-Apr-22 19:53 235 18.9
2018-Apr-22 19:44 229 2 gusting 3 19.4
2018-Apr-22 19:35 226 0 gusting 2 19.4
2018-Apr-22 19:26 226 0 gusting 2 19.4
2018-Apr-22 19:17 230 19.4
2018-Apr-22 19:08 221 19.4
2018-Apr-22 18:59 228 2 gusting 4 18.9
2018-Apr-22 18:50 228 2 gusting 5 18.9
2018-Apr-22 18:41 217 0 gusting 5 18.9
2018-Apr-22 18:32 220 2 gusting 4 18.9
2018-Apr-22 18:23 215 1 gusting 4 18.9
2018-Apr-22 18:14 218 1 gusting 3 18.9
2018-Apr-22 18:05 223 1 gusting 3 19.4